Location: Gönnheim
(49.4488°N, 8.2383°E)
Time: 00:21:02
(UTC+00:00)

Celestis-02/Orion 38 - Pass Details

Date: 19 May 2025
Orbit: 774 x 861 km, 108.0° (Epoch: 15 June)

Event Time Altitude Azimuth Distance (km) Brightness Sun altitude
Exits shadow 23:31:30 43° 167° (SSE) 1,099 4.8 -20.5°
Maximum altitude 23:33:12 74° 241° (WSW) 815 4.5 -20.5°
Drops below altitude 10° 23:38:17 10° 328° (NNW) 2,333 7.7 -20.5°
Sets 23:40:35 0° 330° (NNW) 3,263 8.7 -20.5°
